Regional Weather Roundup
Issued by NWS

Home | Current Version | Previous Version | Text Only | Print | Product List | Glossary On
Versions: 1 2 3 4 5 6 7 8 9 10 11 12 13 14 15 16 17 18 19 20 21 22 23 24 25 26 27
000
ASUS42 KKEY 252310
RWRKEY

FLORIDA REGIONAL WEATHER ROUNDUP FOR THE FLORIDA KEYS
NATIONAL WEATHER SERVICE KEY WEST FLORIDA
700 PM EDT TUE JUL 25 2017

...SOUTH FLORIDA AND THE KEYS...

CITY           SKY/WX    TMP DP  RH WIND       PRES   REMARKS
FORT MYERS     CLOUDY    89  76  65 CALM      30.07S HX 100
SW REGIONAL AP CLOUDY    84  77  79 SW3       30.07F HX  94
NAPLES         CLOUDY    84  73  69 CALM      30.07F HX  90
MIAMI          CLOUDY    87  77  72 SE6       30.09R HX  99
WEST KENDALL   CLOUDY    83  75  77 W5        30.09R HX  90
HOMESTEAD      CLOUDY    85  76  75 CALM      30.08S HX  94
MARATHON       PTSUNNY   88  78  72 E6        30.07S HX 101
BOCA CHICA NAS CLOUDY    87  78  74 E6        30.07S HX 100
KEY WEST INTL  MOSUNNY   88  76  67 E6        30.07F HX  99

...INTERNATIONAL WEATHER...

CITY           SKY/WX    TMP DP  RH WIND       PRES   REMARKS
NASSAU BAHAMAS PTSUNNY   90  77  66 NE7       30.11R HX 102
CANCUN MEXICO  PTSUNNY   88  79  74 NE7       30.05R HX 102
COZUMEL MEXICO PTSUNNY   88  77  70 E10       30.02R HX 100

ADJACENT COASTAL WATERS...

STATION/POSITION TIME  SKY/WX   TEMP    WIND        PRES    WAVE
                                AIR SEA DIR/SP/G            HT/PER
                 (UTC)          (F)     (DEG/KT/KT) (MB)    (FT/S)
PULASKI SHOAL LI 2300            87      60/  7/  8 1018.5F
SAND KEY         2250            85      70/  5/  5 1019.0F
LONG KEY         NOT AVBL
MOLASSES REEF    2200            86 87   CALM  /  2 1018.9F
FOWEY ROCKS      2200            85 87  100/  6/  7 1019.2F
Buoy 42097       2230               88                N/A     1/ 3

$$




USA.gov is the U.S. government's official web portal to all federal, state and local government web resources and services.